Location: Zagreb
(45.8000°N, 16.0000°E)
Time: 14:27:08
(UTC+02:00)

Tiros 1 despin weight - Pass Details

Date: 11 August 2022
Orbit: 590 x 639 km, 48.2° (Epoch: 23 September)

Event Time Altitude Azimuth Distance (km) Brightness Sun altitude
Rises 18:10:33 0° 289° (WNW) 2,826 ? 19.6°
Reaches altitude 10° 18:12:51 10° 286° (WNW) 1,920 ? 19.2°
Maximum altitude 18:17:11 63° 206° (SSW) 660 ? 18.4°
Drops below altitude 10° 18:21:31 10° 125° (SE) 1,914 ? 17.6°
Sets 18:23:49 0° 122° (ESE) 2,816 ? 17.2°
